Location: Newark
(49.8753°N, 23.0797°E)
Time: 16:47:40
(UTC+00:00)

X-37B - Pass Details

Date: 27 June 2021
Orbit: 383 x 392 km, 45.0° (Epoch: 01 July)

Event Time Altitude Azimuth Distance (km) Brightness Sun altitude
Rises 19:52:00 0° 252° (WSW) 2,255 4.7 -8.8°
Reaches altitude 10° 19:54:10 10° 242° (WSW) 1,402 3.5 -9.0°
Maximum altitude 19:57:03 33° 176° (S) 670 1.3 -9.3°
Enters shadow 19:59:54 10° 110° (ESE) 1,392 2.9 -9.5°
